Biggs Army Air Field / Ft. Bl, TX

6:50 AM MST on December 16, 2017 (GMT -0700)
Biggs Army Air Field

Weather History for KBIF - March, 2014

Change the Weather History Date:

Sunday, March 2, 2014

  Actual Average (KELP) Record (KELP)
Temperature  
Mean Temperature 56 °F -  
Max Temperature 62 °F 62 °F 84 °F (1904)
Min Temperature 50 °F 38 °F 16 °F (1922)
Degree Days  
Heating Degree Days 9    
Growing Degree Days 6 (Base 50)    
Moisture  
Dew Point 38 °F    
Average Humidity 56    
Maximum Humidity 87    
Minimum Humidity 31    
Precipitation  
Precipitation 0.20 in - - ()
Sea Level Pressure  
Sea Level Pressure 29.99 in    
Wind  
Wind Speed 11 mph (WSW)    
Max Wind Speed 29 mph    
Max Gust Speed 45 mph    
Visibility 11 miles    
Events Rain    
Averages and records for this station are not official NWS values.
T = Trace of Precipitation, MM = Missing Value Source: NWS Daily Summary

Daily Weather History Graph

Daily Weather History Graph

Search for Another Location

Airport or City:

Trip Planner

Search our weather history database for the weather conditions in past years. The results will help you decide how hot, cold, wet, or windy it might be!

Date:

Astronomy

Mar. 02, 2014 Rise Set
Actual Time 6:31 AM MST 6:04 PM MST
Civil Twilight 6:06 AM MST 6:28 PM MST
Nautical Twilight 5:38 AM MST 6:57 PM MST
Astronomical Twilight 5:10 AM MST 7:25 PM MST
Moon 7:12 AM MST (3/2) 7:53 PM MST (3/2)
Length of Visible Light 12h 21m
Length of Day
11h 32m
Waxing Crescent, 3% of the Moon is Illuminated
Mar 2
Waxing Crescent
Mar 8
First Quarter
Mar 16
Full
Mar 23
Last Quarter
Mar 30
New

Hourly Weather History & Observations

Time (MST) Temp. Dew Point Humidity Pressure Visibility Wind Dir Wind Speed Gust Speed Precip Events Conditions
12:56 AM 56.5 °F 40.6 °F 55% 29.86 in 12.0 mi NNW 8.1 mph - N/A   Mostly Cloudy
1:56 AM 55.6 °F 41.4 °F 59% 29.86 in 12.0 mi NNW 6.9 mph - N/A   Mostly Cloudy
2:56 AM 53.1 °F 42.4 °F 67% 29.86 in 12.0 mi NW 8.1 mph - N/A   Mostly Cloudy
3:56 AM 51.8 °F 42.4 °F 70% 29.89 in 12.0 mi NW 11.5 mph - N/A   Mostly Cloudy
4:56 AM 50.4 °F 41.2 °F 71% 29.92 in 12.0 mi NW 10.4 mph - N/A   Overcast
4:57 AM 50.0 °F 41.0 °F 71% 30.04 in 12.0 mi West 12.7 mph 18.4 mph N/A Rain Light Rain Showers
5:56 AM 50.2 °F 44.6 °F 81% 29.95 in 3.0 mi WSW 13.8 mph 26.5 mph 0.06 in Rain Rain Showers
6:06 AM 50.0 °F 44.6 °F 82% 30.06 in 2.8 mi SW 17.3 mph 27.6 mph N/A Rain Rain Showers
6:26 AM 50.0 °F 46.4 °F 87% 30.06 in 3.0 mi WSW 10.4 mph 26.5 mph N/A Rain Rain Showers
6:56 AM 51.4 °F 44.4 °F 77% 29.95 in 12.0 mi SW 13.8 mph - 0.14 in Rain Light Rain
7:01 AM 51.8 °F 44.6 °F 76% 30.06 in 12.0 mi SW 12.7 mph 21.9 mph N/A   Mostly Cloudy
7:03 AM 51.8 °F 42.8 °F 71% 30.06 in 12.0 mi SW 11.5 mph 21.9 mph N/A Rain Light Rain Showers
7:18 AM 51.8 °F 44.6 °F 76% 30.08 in 12.0 mi SSW 6.9 mph 18.4 mph N/A   Mostly Cloudy
7:56 AM 50.7 °F 43.7 °F 77% 30.00 in 12.0 mi West 11.5 mph 18.4 mph N/A   Mostly Cloudy
8:56 AM 50.4 °F 41.9 °F 73% 30.01 in 12.0 mi West 10.4 mph - N/A   Mostly Cloudy
9:56 AM 55.9 °F 39.0 °F 53% 30.01 in 12.0 mi WSW 12.7 mph 21.9 mph N/A   Clear
10:56 AM 57.9 °F 39.6 °F 50% 29.99 in 12.0 mi WSW 20.7 mph 33.4 mph N/A   Clear
11:56 AM 58.6 °F 35.8 °F 42% 29.97 in 12.0 mi WSW 27.6 mph 39.1 mph N/A   Clear
12:56 PM 59.9 °F 36.5 °F 42% 29.95 in 12.0 mi West 27.6 mph 43.7 mph N/A   Clear
1:56 PM 62.2 °F 32.2 °F 32% 29.91 in 11.0 mi West 28.8 mph 44.9 mph N/A   Clear
2:56 PM 62.1 °F 31.8 °F 32% 29.91 in 12.0 mi West 25.3 mph 42.6 mph N/A   Clear
3:56 PM 62.1 °F 32.0 °F 32% 29.96 in 12.0 mi WNW 10.4 mph 23.0 mph N/A   Clear
4:30 PM 62.6 °F 32.0 °F 32% 30.09 in 12.0 mi West 13.8 mph 18.4 mph N/A   Scattered Clouds
4:56 PM 61.5 °F 30.7 °F 31% 30.00 in 12.0 mi WNW 9.2 mph 15.0 mph N/A   Mostly Cloudy
5:56 PM 58.5 °F 31.3 °F 36% 30.01 in 12.0 mi West 10.4 mph - N/A   Clear
6:56 PM 56.7 °F 30.9 °F 38% 30.02 in 12.0 mi Calm Calm - N/A   Partly Cloudy
7:56 PM 54.9 °F 32.4 °F 42% 30.02 in 12.0 mi WSW 3.5 mph - N/A   Clear
8:56 PM 55.8 °F 32.5 °F 41% 30.05 in 12.0 mi ESE 4.6 mph - N/A   Mostly Cloudy
9:56 PM 55.4 °F 34.0 °F 44% 30.04 in 12.0 mi SSW 4.6 mph - N/A   Mostly Cloudy
10:56 PM 54.3 °F 35.1 °F 48% 30.06 in 12.0 mi South 4.6 mph - N/A   Mostly Cloudy
11:56 PM 53.6 °F 35.6 °F 51% 30.04 in 7.0 mi ESE 3.5 mph - N/A   Mostly Cloudy